Regional Weather Roundup
Issued by NWS

Home | Current Version | Previous Version | Graphics & Text | Print | Product List | Glossary On
Versions: 1 2 3 4 5 6 7 8 9 10 11 12 13 14 15 16 17 18 19 20 21 22 23 24 25 26 27 28 29 30 31 32 33 34 35 36 37 38 39 40 41 42 43 44 45 46 47 48 49 50
000
ASUS43 KMKX 011700
RWRWI

WISCONSIN REGIONAL WEATHER ROUNDUP
NATIONAL WEATHER SERVICE MILWAUKEE/SULLIVAN WI
1200 PM CDT WED OCT 01 2014

NOTE: "FAIR" INDICATES FEW OR NO CLOUDS BELOW 12,000 FEET WITH NO
SIGNIFICANT WEATHER AND/OR OBSTRUCTIONS TO VISIBILITY.

WIZ001-002-006>008-014>016-023>028-011800-
NORTHWEST WISCONSIN

CITY           SKY/WX    TMP DP  RH WIND       PRES   REMARKS
SUPERIOR ARPT  RAIN      49  48  99 E3        29.86S
ASHLAND        LGT RAIN  51  47  86 CALM      29.88F FOG
HAYWARD        RAIN      49  47  93 S8        29.87F FOG
SIREN          RAIN      49  47  95 SE9       29.84F
CUMBERLAND     RAIN      46  45  93 SE9       29.86F
RICE LAKE      RAIN      49  47  93 SE13      29.87F
CHETEK         LGT RAIN  48  47  97 E7        29.88F
LADYSMITH      DRIZZLE   49  47  94 SE5       29.92F
EAU CLAIRE     NOT AVBL
MENOMONIE      RAIN      49  49  98 E9G16     29.86F
NEW RICHMOND   RAIN      49  48  97 SE6       29.83F
OSCEOLA        RAIN      49  49 100 SE8       29.86F
$$

WIZ003>005-009-010-017-018-011800-
NORTH CENTRAL WISCONSIN

CITY           SKY/WX    TMP DP  RH WIND       PRES   REMARKS
MANITOWISH WTR PTSUNNY   52  46  78 S15G21    29.92F
ARBOR VITAE    CLOUDY    52  47  82 S12G17    29.94F
WOODRUFF       CLOUDY    52  47  82 S12G17    29.94F
RHINELANDER    CLOUDY    51  45  79 SE13      29.95F
EAGLE RIVER    CLOUDY    50  43  77 S8        29.96F
LAND O LAKES   CLOUDY    52  45  77 S13G18    29.96F
PHILLIPS       CLOUDY    50  46  86 SE8       29.90F
TOMAHAWK       CLOUDY    54  46  75 S8        29.95F
MEDFORD        CLOUDY    50  46  86 SE6       29.92F
MERRILL        CLOUDY    54  47  77 SE9       29.95F
$$

WIZ029-030-035-036-043>047-011800-
CENTRAL WISCONSIN

CITY           SKY/WX    TMP DP  RH WIND       PRES   REMARKS
WAUSAU         PTSUNNY   56  47  71 SE15      29.94F
MOSINEE        CLOUDY    55  50  82 SE12      29.98R
MARSHFIELD     CLOUDY    56  48  74 SE16      29.91F
STEVENS POINT  PTSUNNY   55  46  71 SE12G18   29.96F
WAUPACA        MOSUNNY   63  51  65 SE9       29.97F
WAUTOMA        NOT AVBL
WISC RAPIDS    PTSUNNY   58  48  69 SE12G20   29.94F
CAMP DOUGLAS   NOT AVBL
$$

WIZ011>013-019>022-031-037>040-048>050-011800-
NORTHEAST WISCONSIN

CITY           SKY/WX    TMP DP  RH WIND       PRES   REMARKS
ANTIGO         CLOUDY    52  49  88 SE13G18   29.97F
SHAWANO        CLOUDY    59  51  74 SE13      29.98F
OCONTO         CLOUDY    53  53 100 SE8       30.01F
STURGEON BAY   NOT AVBL
GREEN BAY      CLOUDY    59  53  80 E13       29.99F
MANITOWOC      NOT AVBL
APPLETON       PTSUNNY   57  52  82 SE10      29.99F
CLINTONVILLE   CLOUDY    59  50  72 SE8       29.97F
OSHKOSH        MOSUNNY   63  51  65 SE10      29.96F
$$

WIZ032>034-041-042-053>061-011800-
SOUTHWEST WISCONSIN

CITY           SKY/WX    TMP DP  RH WIND       PRES   REMARKS
LA CROSSE      LGT RAIN  57  51  80 SE7       29.86F
SPARTA         CLOUDY    57  49  74 E8        29.87F
VIROQUA        CLOUDY    56  49  76 SE14      29.87F
BOSCOBEL       CLOUDY    61  50  67 E6        29.87F
PRAIRIE DU CHI CLOUDY    58  48  69 SE7       29.87R
PLATTEVILLE    CLOUDY    62  53  71 SE14      29.89F
$$

WIZ056-057-062-063-064-067-068-011800-
SOUTH CENTRAL WISCONSIN

CITY           SKY/WX    TMP DP  RH WIND       PRES   REMARKS
REEDSBURG      MOSUNNY   61  51  70 SE6       29.92F
BARABOO/DELLS  MOSUNNY   61  48  62 E12       29.92F
LONE ROCK      NOT AVBL
MINERAL POINT  CLOUDY    61  50  67 SE15      29.91F
MADISON        PTSUNNY   64  49  57 SE14      29.94F
MIDDLETON      MOSUNNY   64  48  56 SE14      29.94F
WATERTOWN      SUNNY     63  49  59 SE9G16    29.96F
MONROE         PTSUNNY   63  52  67 SE14      29.95S
JANESVILLE     SUNNY     66  48  52 S10       29.95F
$$

WIZ051-052-058>065-066-070>072-011800-
SOUTHEAST WISCONSIN

CITY           SKY/WX    TMP DP  RH WIND       PRES   REMARKS
MILWAUKEE      MOSUNNY   61  49  64 SE16      30.00F
WAUKESHA       SUNNY     61  48  63 SE7       30.00F
MILWAUKEE/TIMM SUNNY     63  48  59 S9        30.01F
RACINE         PTSUNNY   60  49  66 S13       30.02F
BURLINGTON     SUNNY     62  47  59 SE7       29.99F
KENOSHA        MOSUNNY   62  51  67 SE14      30.00F
FOND DU LAC    SUNNY     63  50  62 S13       29.97F
SHEBOYGAN      NOT AVBL
WEST BEND      MOSUNNY   61  46  59 SE9       29.99F
JUNEAU         SUNNY     61  49  65 SE13      29.98F
$$

LSZ147-162-011800-
LAKE SUPERIOR

STATION/POSITION TIME  TEMP    WIND        PRES    WAVE
                       AIR SEA DIR/SP/G            HT/PER
                 (UTC) (F)     (DEG/KT/KT) (MB)    (FT/S)
W MID LAKE BUOY  1550   49 50  150/ 10/ 12 1013.4F   2/ 4
DEVILS ISLAND    1600   50     150/  4/  6 1012.8F
SAXON HARBOR     1600   55     160/  2/  9 1012.2F
$$

LMZ867-665-643>646-011800-
LAKE MICHIGAN

STATION/POSITION TIME  TEMP    WIND        PRES    WAVE
                       AIR SEA DIR/SP/G            HT/PER
                 (UTC) (F)     (DEG/KT/KT) (MB)    (FT/S)
CHAMBERS ISLAND  1600   56     160/  8/ 14 1017.3F
N MID LAKE BUOY  1550   55 58  170/  6/  8 1018.0S   1/ 3
NORTHPORT PIER   1600   56     140/  9/ 14 1017.6R
SISTER BAY       1642          180/ 17/ 21   N/A
KEWAUNEE LAKESHO 1600   53     140/  9/ 12 1016.3F
SHEBOYGAN LAKESH 1600   56 54  140/ 14/ 15 1016.8F
PORT WASHINGTON  1640   59     150/ 10/ 13 1016.6F
ATWATER BUOY     1600   58     160/ 12/ 16 1017.4F
MILWAUKEE LAKESH 1600   58     150/ 13/ 14   N/A
S MID LAKE BUOY  1550   57 61  150/ 10/ 12 1017.6S   1/ 3
KENOSHA   LAKESH 1600   58     150/ 13/ 16 1016.3F
$$

TC  - TEMPERATURE IN CELSIUS
VSB - VISIBILITY IN STATUTE MILES
WCI - WIND CHILL INDEX
HX  - HEAT INDEX




USA.gov is the U.S. government's official web portal to all federal, state and local government web resources and services.